Weather History for Kake, AK

Change the Weather History Date:

Saturday, November 3, 2012

  Actual Average Record
Temperature  
Mean Temperature 42 °F -  
Max Temperature 44 °F 41 °F 57 °F (2010)
Min Temperature 41 °F 33 °F 26 °F (2011)
Degree Days  
Heating Degree Days 22    
Moisture  
Dew Point 37 °F    
Average Humidity 81    
Maximum Humidity 87    
Minimum Humidity 76    
Precipitation  
Precipitation 0.00 in - - ()
Sea Level Pressure  
Sea Level Pressure 29.59 in    
Wind  
Wind Speed 11 mph (ESE)    
Max Wind Speed 20 mph    
Max Gust Speed 26 mph    
Visibility 10 miles    
Events      
Averages and records for this station are not official NWS values.
T = Trace of Precipitation, MM = Missing Value Source: NWS Daily Summary

Daily Weather History Graph

Daily Weather History Graph

Search for Another Location

Airport:

Trip Planner

Search our weather history database for the weather conditions in past years. The results will help you decide how hot, cold, wet, or windy it might be!

Date:

Astronomy

Nov. 03, 2012 Rise Set
Actual Time 8:11 AM AKDT 5:05 PM AKDT
Civil Twilight 7:30 AM AKDT 5:46 PM AKDT
Nautical Twilight 6:45 AM AKDT 6:32 PM AKDT
Astronomical Twilight 6:00 AM AKDT 7:16 PM AKDT
Moon 8:33 PM AKDT (11/3) 12:42 PM AKDT (11/3)
Length of Visible Light 10h 16m
Length of Day
8h 53m
Waning Gibbous, 79% of the Moon is Illuminated
Nov 3
Waning Gibbous
Nov 6
Last Quarter
Nov 13
New
Nov 20
First Quarter
Nov 28
Full

Hourly Weather History & Observations

Time (AKDT) Temp. Windchill Dew Point Humidity Pressure Visibility Wind Dir Wind Speed Gust Speed Precip Events Conditions
12:16 AM 41.0 °F 35.8 °F 35.6 °F 81% 29.60 in 10.0 mi East 8.1 mph - N/A   Mostly Cloudy
12:36 AM 41.0 °F 34.7 °F 35.6 °F 81% 29.60 in 10.0 mi ESE 10.4 mph 16.1 mph N/A   Mostly Cloudy
12:56 AM 42.8 °F 37.0 °F 37.4 °F 81% 29.60 in 10.0 mi East 10.4 mph - N/A   Overcast
1:36 AM 42.8 °F 37.5 °F 35.6 °F 76% 29.60 in 10.0 mi East 9.2 mph - N/A   Overcast
1:56 AM 42.8 °F 38.0 °F 37.4 °F 81% 29.60 in 8.0 mi East 8.1 mph - N/A   Overcast
2:16 AM 41.0 °F 35.2 °F 37.4 °F 87% 29.59 in 10.0 mi East 9.2 mph - N/A   Mostly Cloudy
2:36 AM 42.8 °F 37.5 °F 37.4 °F 81% 29.59 in 10.0 mi East 9.2 mph - N/A   Mostly Cloudy
2:56 AM 42.8 °F 37.0 °F 37.4 °F 81% 29.59 in 10.0 mi ESE 10.4 mph - N/A   Scattered Clouds
3:16 AM 42.8 °F 37.0 °F 35.6 °F 76% 29.59 in 10.0 mi ESE 10.4 mph - N/A   Mostly Cloudy
3:36 AM 42.8 °F 37.5 °F 35.6 °F 76% 29.58 in 10.0 mi East 9.2 mph 19.6 mph N/A   Overcast
3:56 AM 42.8 °F 37.0 °F 35.6 °F 76% 29.57 in 10.0 mi East 10.4 mph - N/A   Overcast
4:16 AM 42.8 °F 36.6 °F 35.6 °F 76% 29.57 in 10.0 mi East 11.5 mph 17.3 mph N/A   Overcast
4:36 AM 42.8 °F 35.8 °F 35.6 °F 76% 29.56 in 10.0 mi East 13.8 mph 19.6 mph N/A   Overcast
4:56 AM 42.8 °F 36.6 °F 35.6 °F 76% 29.56 in 10.0 mi East 11.5 mph 19.6 mph N/A   Overcast
5:16 AM 42.8 °F 35.8 °F 35.6 °F 76% 29.56 in 10.0 mi East 13.8 mph 19.6 mph N/A   Mostly Cloudy
5:36 AM 42.8 °F 36.2 °F 35.6 °F 76% 29.55 in 10.0 mi East 12.7 mph 19.6 mph N/A   Mostly Cloudy
5:56 AM 42.8 °F 36.2 °F 35.6 °F 76% 29.55 in 10.0 mi East 12.7 mph 21.9 mph N/A   Overcast
6:16 AM 42.8 °F 37.0 °F 35.6 °F 76% 29.54 in 10.0 mi East 10.4 mph 18.4 mph N/A   Overcast
6:36 AM 42.8 °F 36.2 °F 35.6 °F 76% 29.54 in 10.0 mi ESE 12.7 mph - N/A   Overcast
6:56 AM 41.0 °F 34.3 °F 35.6 °F 81% 29.53 in 10.0 mi ESE 11.5 mph 16.1 mph N/A   Overcast
7:16 AM 41.0 °F 34.3 °F 35.6 °F 81% 29.52 in 10.0 mi ESE 11.5 mph 19.6 mph N/A   Overcast
7:36 AM 41.0 °F 33.9 °F 35.6 °F 81% 29.53 in 10.0 mi ESE 12.7 mph 21.9 mph N/A   Overcast
7:56 AM 41.0 °F 32.5 °F 35.6 °F 81% 29.54 in 10.0 mi ESE 17.3 mph 23.0 mph N/A   Overcast
8:16 AM 41.0 °F 33.5 °F 35.6 °F 81% 29.55 in 10.0 mi ESE 13.8 mph 20.7 mph N/A   Overcast
8:36 AM 41.0 °F 35.2 °F 35.6 °F 81% 29.55 in 7.0 mi ESE 9.2 mph - N/A   Overcast
8:56 AM 41.0 °F 34.3 °F 35.6 °F 81% 29.55 in 10.0 mi ESE 11.5 mph - N/A   Overcast
9:16 AM 41.0 °F 33.9 °F 35.6 °F 81% 29.56 in 10.0 mi ESE 12.7 mph 16.1 mph N/A   Overcast
9:36 AM 41.0 °F 34.7 °F 37.4 °F 87% 29.56 in 10.0 mi ESE 10.4 mph - N/A   Overcast
9:56 AM 42.8 °F 36.6 °F 37.4 °F 81% 29.57 in 10.0 mi ESE 11.5 mph 19.6 mph N/A   Overcast
10:16 AM 42.8 °F 36.6 °F 37.4 °F 81% 29.57 in 10.0 mi ESE 11.5 mph 17.3 mph N/A   Overcast
10:36 AM 42.8 °F 37.0 °F 37.4 °F 81% 29.57 in 10.0 mi ESE 10.4 mph 17.3 mph N/A   Overcast
10:56 AM 42.8 °F 37.5 °F 37.4 °F 81% 29.58 in 10.0 mi ESE 9.2 mph - N/A   Overcast
11:16 AM 42.8 °F 37.5 °F 37.4 °F 81% 29.58 in 10.0 mi ESE 9.2 mph 19.6 mph N/A   Overcast
11:36 AM 42.8 °F 36.6 °F 37.4 °F 81% 29.59 in 10.0 mi ESE 11.5 mph 17.3 mph N/A   Overcast
11:56 AM 42.8 °F 37.5 °F 37.4 °F 81% 29.59 in 10.0 mi ESE 9.2 mph 16.1 mph N/A   Overcast
12:16 PM 42.8 °F 37.0 °F 37.4 °F 81% 29.59 in 10.0 mi ESE 10.4 mph 18.4 mph N/A   Overcast
12:36 PM 42.8 °F 38.0 °F 37.4 °F 81% 29.58 in 10.0 mi ESE 8.1 mph - N/A   Overcast
12:56 PM 42.8 °F 36.2 °F 37.4 °F 81% 29.58 in 10.0 mi ESE 12.7 mph 18.4 mph N/A   Overcast
1:16 PM 42.8 °F 37.0 °F 37.4 °F 81% 29.57 in 10.0 mi East 10.4 mph 17.3 mph N/A   Overcast
1:56 PM 42.8 °F 36.6 °F 37.4 °F 81% 29.59 in 10.0 mi ESE 11.5 mph 18.4 mph N/A   Mostly Cloudy
2:16 PM 42.8 °F 35.8 °F 37.4 °F 81% 29.59 in 10.0 mi East 13.8 mph 21.9 mph N/A   Overcast
2:36 PM 42.8 °F 36.2 °F 37.4 °F 81% 29.59 in 10.0 mi ESE 12.7 mph - N/A   Overcast
2:56 PM 44.6 °F 38.8 °F 37.4 °F 76% 29.59 in 10.0 mi SE 11.5 mph 21.9 mph N/A   Overcast
3:16 PM 44.6 °F 37.8 °F 37.4 °F 76% 29.60 in 9.0 mi ESE 15.0 mph 21.9 mph N/A   Overcast
3:36 PM 42.8 °F 36.2 °F 37.4 °F 81% 29.60 in 10.0 mi ESE 12.7 mph 21.9 mph N/A   Mostly Cloudy
3:56 PM 42.8 °F 35.8 °F 37.4 °F 81% 29.60 in 10.0 mi ESE 13.8 mph 21.9 mph N/A   Mostly Cloudy
4:16 PM 42.8 °F 35.4 °F 37.4 °F 81% 29.60 in 10.0 mi ESE 15.0 mph 21.9 mph N/A   Overcast
4:36 PM 42.8 °F 36.2 °F 37.4 °F 81% 29.60 in 10.0 mi East 12.7 mph 21.9 mph N/A   Overcast
4:56 PM 42.8 °F 36.2 °F 37.4 °F 81% 29.60 in 10.0 mi ESE 12.7 mph 19.6 mph N/A   Mostly Cloudy
5:16 PM 42.8 °F 35.8 °F 37.4 °F 81% 29.60 in 10.0 mi ESE 13.8 mph 20.7 mph N/A   Overcast
5:36 PM 42.8 °F 35.4 °F 37.4 °F 81% 29.60 in 10.0 mi ESE 15.0 mph 21.9 mph N/A   Overcast
5:56 PM 42.8 °F 36.2 °F 37.4 °F 81% 29.61 in 10.0 mi ESE 12.7 mph 21.9 mph N/A   Overcast
6:16 PM 42.8 °F 35.8 °F 37.4 °F 81% 29.61 in 10.0 mi ESE 13.8 mph 25.3 mph N/A   Overcast
6:36 PM 42.8 °F 35.1 °F 37.4 °F 81% 29.62 in 10.0 mi ESE 16.1 mph 24.2 mph N/A   Overcast
6:56 PM 42.8 °F 34.3 °F 37.4 °F 81% 29.63 in 10.0 mi SE 19.6 mph 25.3 mph N/A   Overcast
7:16 PM 42.8 °F 36.2 °F 37.4 °F 81% 29.64 in 10.0 mi SE 12.7 mph 21.9 mph N/A   Overcast
7:36 PM 42.8 °F 37.5 °F 37.4 °F 81% 29.63 in 9.0 mi ESE 9.2 mph 16.1 mph N/A   Overcast
7:56 PM 42.8 °F 37.0 °F 37.4 °F 81% 29.64 in 10.0 mi SE 10.4 mph 17.3 mph N/A   Overcast
8:16 PM 42.8 °F 35.4 °F 37.4 °F 81% 29.64 in 10.0 mi SE 15.0 mph 23.0 mph N/A   Overcast
8:36 PM 42.8 °F 34.8 °F 37.4 °F 81% 29.64 in 10.0 mi SE 17.3 mph 26.5 mph N/A   Overcast
8:56 PM 42.8 °F 34.8 °F 37.4 °F 81% 29.64 in 10.0 mi SE 17.3 mph 24.2 mph N/A   Overcast
9:16 PM 42.8 °F 36.2 °F 37.4 °F 81% 29.66 in 10.0 mi SE 12.7 mph 24.2 mph N/A   Overcast
9:36 PM 42.8 °F 36.2 °F 37.4 °F 81% 29.66 in 10.0 mi SE 12.7 mph 18.4 mph N/A   Overcast
9:56 PM 42.8 °F 35.1 °F 37.4 °F 81% 29.66 in 10.0 mi SE 16.1 mph 23.0 mph N/A   Overcast
10:16 PM 42.8 °F 37.0 °F 39.2 °F 87% 29.66 in 10.0 mi SE 10.4 mph 19.6 mph N/A   Overcast
10:36 PM 42.8 °F 35.4 °F 39.2 °F 87% 29.66 in 10.0 mi SSE 15.0 mph 21.9 mph N/A   Overcast
10:56 PM 42.8 °F 35.8 °F 39.2 °F 87% 29.66 in 10.0 mi SE 13.8 mph 23.0 mph N/A   Overcast
11:16 PM 42.8 °F 36.6 °F 39.2 °F 87% 29.67 in 10.0 mi SE 11.5 mph 19.6 mph N/A   Overcast
11:36 PM 42.8 °F 38.0 °F 39.2 °F 87% 29.68 in 10.0 mi SSE 8.1 mph 20.7 mph N/A   Overcast
11:56 PM 42.8 °F 36.6 °F 39.2 °F 87% 29.68 in 8.0 mi SE 11.5 mph - N/A   Mostly Cloudy